Regional Weather Roundup
Issued by NWS Cleveland, OH

Home | Current Version | Previous Version | Text Only | Print | Product List | Glossary On
Versions: 1 2 3 4 5 6 7 8 9 10 11 12 13 14 15 16 17 18 19 20 21 22 23 24 25 26 27 28 29 30 31 32 33 34 35 36 37 38 39 40 41 42 43 44 45 46 47 48 49 50
000
ASUS41 KCLE 240710
RWRCLE
OHIO REGIONAL WEATHER ROUNDUP
NATIONAL WEATHER SERVICE CLEVELAND, OH
300 AM EDT FRI OCT 24 2014

NOTE: "FAIR" INDICATES FEW OR NO CLOUDS BELOW 12,000 FEET WITH NO
SIGNIFICANT WEATHER AND/OR OBSTRUCTIONS TO VISIBILITY.

OHZ001>008-015>018-024>027-034-035-043-044-240800-
   NORTHWEST OHIO

CITY           SKY/WX    TMP DP  RH WIND       PRES   REMARKS
DEFIANCE       PTCLDY    37  34  89 CALM      30.11R
FINDLAY        MOCLDY    40  36  86 S3        30.10S
TOLEDO EXPRESS MOCLDY    36  34  92 CALM      30.10S FOG
TOLEDO EXEC    MOCLDY    38  35  89 SE5       30.11S
LIMA           MOCLDY    40  37  89 S3        30.10F
$$

OHZ009>014-019>023-028>033-038-089-240800-
   NORTHEAST OHIO

CITY           SKY/WX    TMP DP  RH WIND       PRES   REMARKS
CLE-HOPKINS    MOCLDY    38  36  92 S3        30.12F
CLE-LAKEFRONT  PTCLDY    45  38  76 S3        30.09S
CUY CO. ARPT   NOT AVBL
LORAIN-ELYRIA  CLEAR     37  35  92 CALM      30.10F
ASHTABULA      CLEAR     39  37  92 W3        30.09S FOG
AKRON-CANTON   CLEAR     37  34  89 W5        30.09F FOG
WOOSTER        CLEAR     34  31  88 CALM      30.10F
MANSFIELD      PTCLDY    35  35 100 CALM      30.11S FOG
YOUNGSTOWN     PTCLDY    41  40  96 CALM      30.08S
$$

OHZ042-051>053-060>062-070>072-077>081-240800-
  SOUTHWEST OHIO

CITY           SKY/WX    TMP DP  RH WIND       PRES   REMARKS
CINC-COVINGTON CLOUDY    43  39  86 CALM      30.11S
CINC-LUNKEN    PTCLDY    41  40  96 CALM      30.14S
HAMILTON       MOCLDY    40  39  97 CALM      30.13S
DAYTON         CLOUDY    45  39  79 CALM      30.13R
WRIGHT-PAT AFB PTCLDY    41  40  94 CALM      30.12R
DAYTON GENERAL MOCLDY    46  40  79 CALM      30.11R
WILMINGTON     CLOUDY    40  37  89 CALM      30.11S
$$

OHZ036-037-039>041-045>050-054>059-063>069-073>076-082>088-240800-
  CENTRAL AND SOUTHEAST OHIO

CITY           SKY/WX    TMP DP  RH WIND       PRES   REMARKS
COLUMBUS       MOCLDY    39  37  92 CALM      30.12R
OSU AIRPORT    CLOUDY    37  36  96 CALM      30.12R FOG
BOLTON FIELD   MOCLDY    38  38  98 CALM      30.12R
RICKENBACK AFB MOCLDY    38  37  95 CALM      30.11S
NEWARK         MOCLDY    37  34  89 CALM      30.11F
MARION         CLOUDY    36  35  96 CALM      30.12R FOG
LANCASTER      MOCLDY    36  34  92 CALM      30.12S
ZANESVILLE     MOCLDY    37  35  92 CALM      30.11S
NEW PHILLY     FOG       36  35  96 CALM      30.12R VSB 1/4
$$



USA.gov is the U.S. government's official web portal to all federal, state and local government web resources and services.